Terug naar catalogus

COSMOS 1579 FUEL CORE

ActiefLEO
NORAD 15330·DEBRIS·🇷🇺 Russia

Gelanceerd Jun 29, 1984 vanaf Baikonur Cosmodrome

Loading…

Volgende Passages (komende 24 uur)

TLE

VersSource: Space-Track

Epoch: Sep 14, 2026, 13:53 UTC

1 15330U 84069D   26257.57850758 -.00000068  00000-0  17659-4 0  9993
2 15330  65.0560 314.4553 0050052 284.6314 148.0140 13.89920671144408

Volg COSMOS 1579 FUEL CORE in realtime met AllMySat

Download on the App Store